User: anonymous   Login
Location: Ab? ar R?sh Ba?r?
(24.1861°N, 32.8847°E)
Time: 12:52:21
(UTC+00:00)
Language:

NOSS 2-2 (D) - Orbit

View from above orbital plane
View from above orbital plane
View from above satellite
View from above satellite

Ground track
Ground track

The orbit data is extracted from the following two-line orbital elements,

1 21808U 91076D   22020.19520230 0.00000600  00000-0  89612-4 0    09
2 21808  63.3107  73.2198 0879191  46.9459 313.0541 13.41755548    03
Epoch (UTC): 20 January 2022 04:41:05
Eccentricity: 0.0879191
inclination: 63.3107°
perigee height: 445 km
apogee height: 1760 km
right ascension of ascending node: 73.2198°
argument of perigee: 46.9459°
revolutions per day: 13.41755548
mean anomaly at epoch: 313.0541°
orbit number at epoch: 0

The dashed part of the orbit path shows where the satellite is in the earth's shadow,  

DLR